SCOUT A DEB, 2702

Orbit data source: Space-Track

SCOUT A DEB, 2702 is space debris in LEO originally from a launch on Thu, 18 Aug 1966 UTC launched from the Air Force Western Test Range (AFWTR). Debris objects in space refer to the collection of defunct objects orbiting the Earth. Examples of debris include non-operational satellites, rocket bodies, and fragments generated from explosions, collisions, or faulty payload assembly.

Loading next visibility...
Identifier
2702, 1966-076D
Orbit
LEO
Last TLE update
1 day ago
Origin
Manufacturer
Unknown
Mission
Spacecraft
Bus & Motor
Unknown
Mass
Unknown
Launch date (UTC)
1966-08-18 (59 years ago)
Launch vehicle
Unknown
Launch site
Air Force Western Test Range (AFWTR)
Object type
Payload
Rocket body
Debris
Shape & HBR
Unknown
Radar Cross Section
Small (<0.1 m²)

Expand to show TLE details & history

TLE from 1 day ago
0 SCOUT A DEB
1 02702U 66076D   25191.27867801  .00000064  00000-0  97488-4 0  9993
2 02702  88.5696 306.2880 0089115 157.6296 231.4473 13.36482934850664
Epoch: 2025-07-10T06:41Z
TLE epoch observation values (Epoch: 2025-07-10T06:41:17.78Z)
Latitude
28.31406°
Longitude
-81.71641°
Altitude
1,167.964 km
Speed
7.251 km/s
True Right ascension
20h 28m 13s
True Declination
28° 10' 43"
Sunlit
Object was in full shadow at epoch
Visualization orbit readout
Latitude
23.16468°
Longitude
-82.03229°
Altitude
1,169.051 km
Speed
7.249 km/s
Apparent Right ascension
17h 57m 36s
Apparent Declination
-20° 20' 15"
Sunlit
Object is in full shadow
Visualization observer readout
Local Sidereal Time
21:54:37
Azimuth
234.53° WSW
Elevation
8.318°
Doppler factor
1
Orbital elements
Apogee altitude
1,186.299 km
Perigee altitude
1,052.669 km
Semi-major axis
7,497.621 km
Eccentricity
0.00891
Inclination
88.5696°
RAAN
306.288°
Arg. of periapsis
157.6296°
True anomaly
Unknown
Mean anomaly
231.4473°
Eccentric anomaly
Unknown
Mean motion
3.34317 °/min
Orbital period
107.68 mins
BSTAR
0.000097488
Loading maneuver chart data...
Loading SW <> Apogee altitude chart data...
Loading historical data...
Loading historical data...
Loading historical data...
Loading historical data...
Loading historical data...
Loading historical data...
Loading historical data...

SCOUT A DEB Visibility forecast

Observer location: undefined°, undefined°

Span
Click to sort rows by Start time (UTC) header in descending order
Start Az.
Max El. time (UTC)
Max El. Az.
Max El.
End time (UTC)
End Az.
9 mins2025-07-11 09:37:52.932Z240.428° WSW2025-07-11 09:42:52.932Z287.683° WNW18.838°2025-07-11 09:46:52.932Z325.12° NNW
10 mins2025-07-11 19:05:52.932Z22.272° NNE2025-07-11 19:10:52.932Z88.223° E31.581°2025-07-11 19:15:52.932Z146.829° SSE
9 mins2025-07-11 20:53:52.932Z333.983° NNW2025-07-11 20:57:52.932Z286.953° WNW28.099°2025-07-11 21:02:52.932Z225.701° WSW
11 mins2025-07-12 07:10:52.932Z140.042° SSE2025-07-12 07:15:52.932Z81.604° E32.016°2025-07-12 07:21:52.932Z16.696° NNE
10 mins2025-07-12 08:58:52.932Z220.691° SW2025-07-12 09:03:52.932Z281.812° WNW30.261°2025-07-12 09:08:52.932Z337.593° N
|